Total_Precipitation_Accumulation
0.21 0.38 0.84 1.34 2.35 2.66 1.99 1.22 0.88 0.83 0.87 0.85 0.78 0.84 0.95 1.19 1.70 2.69 2.64 2.22 1.77 1.80 2.27 2.45 2.71 2.58 2.45 2.32 2.34 2.49 2.56 2.36 2.18 2.15 2.23 2.28 2.32 2.21 2.23 2.31 2.38 2.41 2.35 2.42 2.62 2.57 2.65 2.73 2.73
0.36 0.67 1.24 2.11 2.79 2.20 1.74 1.07 0.69 0.67 0.72 0.86 0.88 0.80 0.72 0.83 0.98 1.47 2.06 2.18 1.52 1.42 1.74 1.87 2.21 2.27 2.28 2.15 2.21 2.33 2.30 2.14 2.05 1.97 2.11 2.20 2.25 2.27 2.26 2.36 2.46 2.48 2.42 2.46 2.54 2.55 2.63 2.72 2.72
0.55 0.83 1.48 2.32 1.96 1.54 1.41 0.93 0.63 0.47 0.63 0.91 0.94 0.70 0.81 1.12 1.18 1.54 1.83 1.74 1.40 1.35 1.49 1.76 2.03 2.08 2.09 2.01 2.01 2.06 1.99 1.93 1.95 1.96 2.03 2.11 2.22 2.32 2.34 2.37 2.52 2.73 2.79 2.72 2.62 2.66 2.70 2.69 2.59
0.75 1.06 1.55 1.72 1.17 0.79 0.76 0.73 0.63 0.59 0.77 0.91 0.82 0.75 0.96 1.31 1.32 1.40 1.38 1.32 1.16 1.39 1.52 1.77 2.12 2.06 2.00 1.91 1.86 1.84 1.82 1.82 1.84 1.91 2.09 2.17 2.22 2.24 2.32 2.40 2.59 2.86 2.84 2.63 2.67 2.76 2.69 2.72 2.70
0.91 1.38 1.89 1.46 0.95 0.64 0.50 0.49 0.54 0.70 0.83 0.94 0.83 0.88 1.31 1.46 1.17 1.09 1.05 1.22 1.28 1.53 1.75 1.94 2.22 2.22 2.14 1.97 1.84 1.75 1.65 1.70 1.74 1.83 2.03 2.15 2.16 2.11 2.17 2.37 2.43 2.44 2.53 2.65 2.76 2.75 2.68 2.75 2.73
1.15 1.44 1.60 1.13 0.73 0.52 0.45 0.45 0.58 0.75 0.76 0.82 0.93 1.11 1.68 1.64 1.26 1.11 1.11 1.28 1.43 1.58 1.82 2.18 2.41 2.49 2.38 2.15 1.91 1.75 1.64 1.59 1.62 1.72 1.81 1.95 2.05 2.11 2.27 2.38 2.24 2.14 2.26 2.56 2.73 2.73 2.75 2.73 2.68
1.23 1.35 1.23 0.83 0.63 0.53 0.49 0.48 0.53 0.67 0.75 0.94 0.97 1.14 1.74 1.91 1.43 1.12 1.26 1.59 1.76 1.78 1.72 2.04 2.30 2.46 2.54 2.35 1.97 1.82 1.69 1.55 1.55 1.58 1.65 1.78 1.94 2.04 2.18 2.32 2.28 2.15 2.13 2.34 2.60 2.65 2.88 2.74 2.52
0.84 0.93 0.95 0.71 0.57 0.50 0.41 0.41 0.52 0.68 0.78 0.84 0.96 1.17 1.49 1.57 1.32 1.27 1.56 2.07 2.35 2.24 1.93 1.67 1.77 2.14 2.30 2.15 2.01 1.93 1.69 1.50 1.53 1.64 1.82 2.04 2.17 2.20 2.29 2.29 2.50 2.32 2.17 2.32 2.55 2.62 2.65 2.62 2.65
0.56 0.77 0.81 0.57 0.43 0.39 0.39 0.42 0.46 0.51 0.61 0.84 1.08 1.27 1.26 1.09 1.12 1.38 1.75 2.20 2.50 2.34 2.17 1.87 1.75 1.89 2.04 1.87 1.72 1.97 1.83 1.67 1.82 2.13 2.32 2.49 2.57 2.36 2.45 2.36 2.84 2.76 2.65 2.81 2.92 2.92 2.92 2.98 3.07
0.47 0.58 0.48 0.32 0.28 0.27 0.31 0.37 0.38 0.54 0.85 1.29 1.56 1.47 1.26 1.14 1.27 1.56 1.85 1.99 2.10 2.14 2.10 2.12 1.90 1.93 2.00 1.83 2.03 2.51 2.23 2.22 2.50 2.68 2.58 3.10 3.32 3.12 2.49 2.62 3.21 3.33 3.38 3.46 3.44 3.59 3.44 3.22 3.20
0.33 0.33 0.26 0.20 0.19 0.24 0.26 0.29 0.36 0.57 1.12 1.59 1.79 1.50 1.32 1.34 1.47 1.62 2.02 2.19 2.29 2.30 2.16 2.23 2.10 2.05 2.19 2.39 2.39 2.65 2.79 2.97 3.14 3.16 3.19 3.52 3.38 3.02 2.73 2.97 3.42 3.54 3.51 3.52 3.64 3.79 3.36 3.29 3.38
0.17 0.14 0.14 0.12 0.14 0.18 0.22 0.27 0.45 0.70 1.13 1.40 1.32 1.16 1.16 1.45 1.66 1.86 2.19 2.53 2.64 2.73 2.68 2.47 2.35 2.58 2.74 2.69 2.59 2.47 2.33 2.44 2.74 2.89 2.86 3.39 3.84 3.71 3.55 3.66 3.57 3.75 3.94 4.21 3.86 3.82 3.66 3.62 3.46
0.15 0.13 0.13 0.12 0.13 0.19 0.20 0.28 0.47 0.78 0.99 1.03 0.90 0.94 1.23 1.59 1.85 2.34 2.83 2.90 2.88 3.15 3.34 3.16 3.04 3.05 2.93 3.02 2.67 2.32 2.27 2.15 2.17 2.58 2.89 3.12 3.53 3.71 3.75 3.56 3.54 3.36 3.47 3.65 3.68 3.38 3.52 3.74 3.73
0.11 0.10 0.13 0.14 0.16 0.20 0.27 0.34 0.45 0.70 0.80 0.79 0.85 1.09 1.32 1.75 2.07 2.63 3.14 3.21 3.32 3.61 3.84 3.76 3.76 3.58 3.29 3.04 2.92 2.78 2.55 2.47 2.19 2.46 2.62 2.90 3.28 3.43 3.34 3.41 3.54 3.33 3.33 3.35 3.39 3.42 3.75 3.96 4.03
0.11 0.13 0.19 0.20 0.20 0.21 0.31 0.57 0.60 0.77 0.86 0.83 1.00 1.16 1.54 2.01 2.29 2.63 2.87 3.27 3.72 4.16 4.24 4.20 4.20 4.15 4.12 3.77 3.36 3.00 2.94 2.67 2.60 2.61 2.54 2.79 3.13 3.39 3.33 3.31 3.16 3.14 3.21 3.39 3.44 3.57 3.80 3.68 3.76
0.17 0.30 0.44 0.35 0.29 0.26 0.38 0.90 0.99 0.92 0.87 0.96 1.09 1.39 1.66 1.97 2.38 2.61 2.93 3.30 3.73 4.30 4.71 4.80 4.28 4.31 4.42 4.37 4.05 3.55 3.47 3.32 3.14 2.84 2.69 2.69 2.97 3.09 3.15 2.99 2.88 2.94 2.83 2.99 3.27 3.33 3.43 3.59 3.76
0.20 0.31 0.41 0.47 0.32 0.30 0.45 0.99 1.30 1.05 0.87 0.99 1.24 1.50 1.86 2.11 2.54 2.67 2.85 3.13 3.63 4.59 5.53 5.56 5.06 4.65 4.41 4.39 4.45 4.28 4.10 3.79 3.32 3.09 2.97 2.83 2.70 2.51 2.62 2.69 2.79 2.63 2.60 2.73 2.61 3.18 3.41 3.55 3.66
0.17 0.21 0.37 0.54 0.36 0.35 0.51 0.95 1.01 0.97 1.09 1.05 1.10 1.28 1.60 1.75 2.06 2.33 2.63 3.19 4.03 5.28 6.10 6.02 5.40 4.99 4.69 4.50 4.36 4.36 4.12 3.86 3.41 3.21 3.04 2.76 2.74 2.40 2.46 2.46 2.58 2.46 2.60 2.85 3.08 3.40 3.39 3.29 3.36
0.14 0.18 0.31 0.38 0.33 0.43 0.57 0.85 0.95 1.05 1.23 1.21 1.08 1.10 1.38 1.58 1.87 2.35 2.91 3.75 4.86 5.83 6.15 5.66 5.20 4.90 4.52 4.16 3.59 3.27 3.39 3.36 3.13 2.81 2.47 2.41 2.31 2.37 2.62 2.38 2.61 2.46 2.60 2.74 2.85 3.06 3.11 2.97 3.04
0.14 0.19 0.29 0.36 0.29 0.35 0.59 0.92 1.23 1.19 1.12 1.06 1.14 1.17 1.26 1.61 2.05 2.79 3.82 4.41 4.69 4.85 4.60 4.30 4.07 3.90 3.42 3.18 3.10 2.91 2.99 2.75 2.60 2.52 2.62 2.23 2.09 2.16 2.14 2.47 2.48 2.51 2.75 2.77 2.78 3.01 2.94 2.70 2.80
0.17 0.20 0.28 0.35 0.26 0.34 0.61 1.16 1.46 1.38 1.13 0.97 1.06 1.11 1.27 1.65 2.24 3.07 3.66 3.79 3.55 3.22 3.10 3.06 3.17 2.96 2.85 2.92 2.87 2.82 2.93 2.65 2.47 2.43 2.58 2.20 1.91 1.90 2.01 2.15 2.35 2.60 2.50 2.69 2.79 2.72 2.83 2.86 2.80
0.18 0.15 0.13 0.17 0.27 0.51 0.74 1.42 1.59 1.38 1.29 1.08 1.12 1.14 1.15 1.41 1.79 2.23 2.50 2.40 2.50 2.63 2.65 2.79 2.90 2.66 2.69 2.68 2.42 2.37 2.35 2.25 2.23 2.30 2.41 2.45 2.01 1.83 1.84 1.95 2.17 2.40 2.29 2.58 2.37 2.55 2.90 2.98 2.78
0.09 0.08 0.10 0.18 0.34 0.57 0.79 1.15 1.33 1.15 1.31 1.10 0.98 0.98 0.92 1.10 1.27 1.40 1.51 1.62 1.82 1.95 2.13 2.41 2.69 2.66 2.52 2.36 2.35 2.41 2.27 2.27 2.27 2.31 2.41 2.50 2.27 1.98 1.79 1.89 2.13 2.25 2.21 2.29 2.34 2.73 2.78 2.74 2.70
0.08 0.10 0.21 0.33 0.53 1.06 1.04 1.06 1.30 1.31 1.33 1.14 0.98 0.82 0.83 0.96 1.10 1.17 1.21 1.33 1.50 1.66 1.88 2.13 2.48 2.57 2.51 2.35 2.26 2.32 2.39 2.39 2.34 2.39 2.38 2.20 2.17 2.15 1.96 1.97 2.15 2.13 2.13 2.19 2.26 2.53 2.55 2.69 2.79
0.10 0.15 0.39 0.76 1.13 1.30 0.86 0.94 1.24 1.15 1.02 0.89 0.67 0.63 0.72 0.90 1.04 1.17 1.18 1.19 1.26 1.42 1.56 1.64 1.90 2.17 2.29 2.24 2.21 2.22 2.40 2.33 2.16 2.09 2.07 2.06 1.87 1.81 1.87 1.97 2.17 2.04 2.02 2.11 2.38 2.52 2.52 2.68 2.71
0.09 0.10 0.24 0.41 0.52 0.67 0.85 1.23 1.36 1.14 0.76 0.50 0.49 0.61 0.77 0.90 0.97 1.08 1.10 1.06 1.09 1.18 1.36 1.51 1.81 1.97 2.16 2.18 2.15 2.18 2.26 2.16 2.01 2.05 1.84 1.84 1.77 1.68 1.77 1.89 1.92 1.92 1.97 2.00 2.43 2.33 2.41 2.57 2.48
0.09 0.09 0.11 0.18 0.22 0.47 0.86 1.17 1.15 0.97 0.75 0.58 0.55 0.60 0.76 0.81 0.80 0.93 0.97 1.11 1.16 1.11 1.23 1.41 1.70 2.04 2.26 2.33 2.37 2.29 2.27 2.27 2.22 2.14 1.91 1.71 1.85 1.75 1.84 1.93 1.94 1.98 2.16 2.31 2.52 2.36 2.39 2.53 2.34
0.09 0.11 0.13 0.15 0.24 0.40 0.70 1.12 1.35 1.17 0.93 0.76 0.66 0.66 0.75 0.77 0.80 1.01 1.18 1.22 1.11 0.98 1.06 1.21 1.52 2.02 2.29 2.43 2.37 2.20 2.34 2.25 2.23 2.14 1.95 1.79 1.79 1.83 1.97 2.13 2.12 2.19 2.24 2.34 2.46 2.26 2.39 2.44 2.32
0.10 0.11 0.14 0.16 0.17 0.26 0.55 0.80 0.79 0.81 0.73 0.71 0.77 0.75 0.63 0.69 0.85 1.09 1.35 1.30 1.04 0.92 0.92 1.08 1.46 1.80 2.03 2.20 2.25 2.10 2.05 1.98 1.98 1.99 1.95 1.93 1.94 1.91 1.92 2.06 2.13 2.10 2.14 2.24 2.36 2.17 2.26 2.27 2.31
0.12 0.13 0.17 0.20 0.19 0.18 0.32 0.57 0.45 0.54 0.63 0.71 0.83 0.89 0.84 0.87 0.93 1.00 1.16 1.29 1.19 1.05 0.99 1.20 1.50 1.70 1.82 1.92 1.96 1.94 1.94 1.92 1.83 1.79 1.86 1.93 1.85 1.77 1.82 1.90 1.89 1.81 1.93 2.12 2.15 2.06 2.15 2.22 2.21